| time (UTC) | temp F | wind direction | speed knots | gust knots | rain 1hr in | rain 24hr in | rain mn in | humidity % | barometer mb |
| 20260902204703 | 104 | 272 | 3.5 | 6.1 | 0.00 | 0.00 | 0.00 | 43 | 1012.1 |
| 20260902204554 | 103 | 126 | 2.6 | 7.8 | 0.00 | 0.00 | 0.00 | 42 | 1012.3 |
| 20260902204203 | 104 | 244 | 3.5 | 7.8 | 0.00 | 0.00 | 0.00 | 40 | 1012.2 |
| 20260902203701 | 105 | 111 | 4.3 | 7.8 | 0.00 | 0.00 | 0.00 | 40 | 1012.2 |
| 20260902203425 | 105 | 311 | 3.5 | 7.8 | 0.00 | 0.00 | 0.00 | 39 | 1012.2 |
| 20260902203052 | 104 | 290 | 2.6 | 6.1 | 0.00 | 0.00 | 0.00 | 39 | 1012.4 |
| 20260902202701 | 105 | 326 | 2.6 | 5.2 | 0.00 | 0.00 | 0.00 | 39 | 1012.4 |
| 20260902202200 | 104 | 222 | 2.6 | 6.1 | 0.00 | 0.00 | 0.00 | 39 | 1012.5 |
| 20260902201703 | 104 | 65 | 2.6 | 6.1 | 0.00 | 0.00 | 0.00 | 39 | 1012.5 |
| 20260902201602 | 103 | 65 | 1.7 | 6.1 | 0.00 | 0.00 | 0.00 | 39 | 1012.8 |
| 20260902201201 | 104 | 245 | 1.7 | 6.1 | 0.00 | 0.00 | 0.00 | 40 | 1012.6 |
| 20260902200922 | 104 | 230 | 2.6 | 6.1 | 0.00 | 0.00 | 0.00 | 39 | 1012.8 |
| 20260902200201 | 103 | 130 | 1.7 | 6.1 | 0.00 | 0.00 | 0.00 | 39 | 1012.8 |
| 20260902200056 | 103 | 94 | 1.7 | 6.1 | 0.00 | 0.00 | 0.00 | 40 | 1013.0 |
| 20260902195701 | 103 | 245 | 3.5 | 7.0 | 0.00 | 0.00 | 0.00 | 40 | 1013.0 |
| 20260902195200 | 103 | 13 | 1.7 | 7.0 | 0.00 | 0.00 | 0.00 | 40 | 1013.1 |
| 20260902195148 | 103 | 103 | 2.6 | 7.8 | 0.00 | 0.00 | 0.00 | 41 | 1013.2 |
| 20260902194556 | 102 | 101 | 2.6 | 7.0 | 0.00 | 0.00 | 0.00 | 40 | 1013.5 |
| 20260902194203 | 103 | 162 | 3.5 | 7.8 | 0.00 | 0.00 | 0.00 | 38 | 1013.4 |
| 20260902193703 | 103 | 233 | 2.6 | 7.8 | 0.00 | 0.00 | 0.00 | 41 | 1013.4 |
| 20260902193202 | 103 | 211 | 2.6 | 5.2 | 0.00 | 0.00 | 0.00 | 41 | 1013.4 |
| 20260902193100 | 102 | 190 | 1.7 | 7.0 | 0.00 | 0.00 | 0.00 | 40 | 1013.6 |
| 20260902192702 | 103 | 0 | 2.6 | 6.1 | 0.00 | 0.00 | 0.00 | 44 | 1013.4 |
| 20260902192202 | 102 | 250 | 3.5 | 7.0 | 0.00 | 0.00 | 0.00 | 43 | 1013.7 |
| 20260902191701 | 102 | 110 | 3.5 | 7.0 | 0.00 | 0.00 | 0.00 | 42 | 1013.6 |
| 20260902191606 | 101 | 105 | 3.5 | 7.0 | 0.00 | 0.00 | 0.00 | 42 | 1013.8 |
| 20260902191423 | 102 | 347 | 3.5 | 7.0 | 0.00 | 0.00 | 0.00 | 43 | 1013.8 |
| 20260902190701 | 101 | 325 | 1.7 | 6.1 | 0.00 | 0.00 | 0.00 | 45 | 1013.9 |
| 20260902190201 | 101 | 261 | 2.6 | 7.8 | 0.00 | 0.00 | 0.00 | 44 | 1014.0 |
| 20260902190056 | 101 | 304 | 2.6 | 7.8 | 0.00 | 0.00 | 0.00 | 44 | 1014.2 |
| 20260902185701 | 101 | 6 | 4.3 | 9.6 | 0.00 | 0.00 | 0.00 | 46 | 1014.0 |
| 20260902185200 | 101 | 295 | 2.6 | 11.3 | 0.00 | 0.00 | 0.00 | 44 | 1014.1 |
| 20260902184703 | 101 | 344 | 4.3 | 11.3 | 0.00 | 0.00 | 0.00 | 45 | 1014.2 |
| 20260902184603 | 101 | 210 | 2.6 | 7.8 | 0.00 | 0.00 | 0.00 | 44 | 1014.4 |
| 20260902184203 | 101 | 198 | 2.6 | 6.1 | 0.00 | 0.00 | 0.00 | 46 | 1014.2 |
| 20260902183733 | 101 | 167 | 2.6 | 9.6 | 0.00 | 0.00 | 0.00 | 46 | 1014.4 |
| 20260902183202 | 101 | 255 | 4.3 | 9.6 | 0.00 | 0.00 | 0.00 | 47 | 1014.5 |
| 20260902183103 | 100 | 185 | 1.7 | 7.0 | 0.00 | 0.00 | 0.00 | 47 | 1014.6 |
| 20260902182702 | 101 | 20 | 2.6 | 6.1 | 0.00 | 0.00 | 0.00 | 47 | 1014.5 |
| 20260902182208 | 101 | 200 | 2.6 | 6.1 | 0.00 | 0.00 | 0.00 | 48 | 1014.5 |
| 20260902181703 | 100 | 320 | 2.6 | 12.2 | 0.00 | 0.00 | 0.00 | 48 | 1014.5 |
| 20260902181557 | 99 | 17 | 1.7 | 11.3 | 0.00 | 0.00 | 0.00 | 46 | 1014.9 |
| 20260902181203 | 100 | 119 | 5.2 | 12.2 | 0.00 | 0.00 | 0.00 | 47 | 1014.8 |
| 20260902180702 | 100 | 316 | 2.6 | 7.8 | 0.00 | 0.00 | 0.00 | 49 | 1014.8 |
| 20260902180206 | 100 | 302 | 3.5 | 7.8 | 0.00 | 0.00 | 0.00 | 50 | 1015.0 |
| 20260902180126 | 99 | 240 | 1.7 | 9.6 | 0.00 | 0.00 | 0.00 | 49 | 1015.3 |
| 20260902175701 | 99 | 34 | 1.7 | 10.4 | 0.00 | 0.00 | 0.00 | 49 | 1015.1 |
| 20260902175201 | 99 | 40 | 4.3 | 10.4 | 0.00 | 0.00 | 0.00 | 50 | 1015.2 |
| 20260902174702 | 98 | 27 | 1.7 | 6.1 | 0.00 | 0.00 | 0.00 | 54 | 1015.3 |
| 20260902174648 | 98 | 174 | 2.6 | 6.1 | 0.00 | 0.00 | 0.00 | 51 | 1015.5 |
| 20260902174201 | 98 | 205 | 2.6 | 8.7 | 0.00 | 0.00 | 0.00 | 53 | 1015.5 |
| 20260902173925 | 98 | 2 | 3.5 | 8.7 | 0.00 | 0.00 | 0.00 | 51 | 1015.5 |
| 20260902173200 | 98 | 143 | 3.5 | 7.0 | 0.00 | 0.00 | 0.00 | 52 | 1015.5 |
| 20260902173057 | 97 | 291 | 1.7 | 7.0 | 0.00 | 0.00 | 0.00 | 52 | 1015.8 |
| 20260902172701 | 97 | 122 | 3.5 | 7.0 | 0.00 | 0.00 | 0.00 | 53 | 1015.6 |
| 20260902172200 | 97 | 105 | 3.5 | 11.3 | 0.00 | 0.00 | 0.00 | 54 | 1015.7 |
| 20260902171923 | 97 | 50 | 4.3 | 11.3 | 0.00 | 0.00 | 0.00 | 53 | 1015.8 |
| 20260902171609 | 97 | 56 | 1.7 | 8.7 | 0.00 | 0.00 | 0.00 | 52 | 1015.9 |
| 20260902171201 | 97 | 319 | 3.5 | 7.8 | 0.00 | 0.00 | 0.00 | 54 | 1015.8 |
| 20260902170701 | 97 | 297 | 3.5 | 7.0 | 0.00 | 0.00 | 0.00 | 54 | 1015.8 |
| 20260902170424 | 97 | 146 | 1.7 | 7.0 | 0.00 | 0.00 | 0.00 | 54 | 1016.0 |
| 20260902170054 | 96 | 128 | 2.6 | 9.6 | 0.00 | 0.00 | 0.00 | 55 | 1016.1 |
| 20260902165700 | 96 | 250 | 1.7 | 9.6 | 0.00 | 0.00 | 0.00 | 54 | 1015.9 |
| 20260902165201 | 96 | 229 | 5.2 | 9.6 | 0.00 | 0.00 | 0.00 | 56 | 1015.9 |
| 20260902164700 | 96 | 205 | 2.6 | 5.2 | 0.00 | 0.00 | 0.00 | 57 | 1016.1 |
| 20260902164559 | 96 | 148 | 1.7 | 5.2 | 0.00 | 0.00 | 0.00 | 56 | 1016.4 |
| 20260902164201 | 96 | 20 | 2.6 | 5.2 | 0.00 | 0.00 | 0.00 | 58 | 1016.2 |
| 20260902163701 | 96 | 307 | 1.7 | 6.1 | 0.00 | 0.00 | 0.00 | 58 | 1016.2 |
| 20260902163201 | 95 | 65 | 2.6 | 7.0 | 0.00 | 0.00 | 0.00 | 60 | 1016.4 |
| 20260902163104 | 94 | 311 | 3.5 | 7.0 | 0.00 | 0.00 | 0.00 | 58 | 1016.5 |
| 20260902162700 | 95 | 278 | 2.6 | 7.0 | 0.00 | 0.00 | 0.00 | 60 | 1016.3 |
| 20260902162201 | 94 | 236 | 1.7 | 8.7 | 0.00 | 0.00 | 0.00 | 61 | 1016.3 |
| 20260902161702 | 94 | 287 | 3.5 | 8.7 | 0.00 | 0.00 | 0.00 | 61 | 1016.4 |
| 20260902161605 | 93 | 204 | 1.7 | 7.8 | 0.00 | 0.00 | 0.00 | 61 | 1016.6 |
| 20260902161201 | 94 | 352 | 2.6 | 7.8 | 0.00 | 0.00 | 0.00 | 62 | 1016.4 |
| 20260902160925 | 93 | 186 | 3.5 | 7.8 | 0.00 | 0.00 | 0.00 | 62 | 1016.2 |
| 20260902160223 | 92 | 277 | 2.6 | 7.0 | 0.00 | 0.00 | 0.00 | 63 | 1016.5 |
| 20260902160201 | 93 | 250 | 1.7 | 7.8 | 0.00 | 0.00 | 0.00 | 63 | 1016.3 |
| 20260902155931 | 92 | 281 | 2.6 | 7.0 | 0.00 | 0.00 | 0.00 | 63 | 1016.4 |
| 20260902155202 | 92 | 87 | 2.6 | 7.0 | 0.00 | 0.00 | 0.00 | 65 | 1016.4 |
| 20260902154700 | 92 | 143 | 3.5 | 7.0 | 0.00 | 0.00 | 0.00 | 65 | 1016.5 |
| 20260902154629 | 91 | 340 | 1.7 | 7.8 | 0.00 | 0.00 | 0.00 | 65 | 1016.7 |
| 20260902154201 | 91 | 97 | 2.6 | 7.0 | 0.00 | 0.00 | 0.00 | 67 | 1016.5 |
| 20260902153653 | 91 | 236 | 3.5 | 7.0 | 0.00 | 0.00 | 0.00 | 67 | 1016.5 |
| 20260902153152 | 91 | 166 | 4.3 | 7.0 | 0.00 | 0.00 | 0.00 | 67 | 1016.4 |
| 20260902153141 | 90 | 119 | 3.5 | 7.8 | 0.00 | 0.00 | 0.00 | 67 | 1016.6 |
| 20260902153105 | 90 | 119 | 3.5 | 7.8 | 0.00 | 0.00 | 0.00 | 67 | 1016.6 |
| 20260902152651 | 90 | 122 | 2.6 | 7.0 | 0.00 | 0.00 | 0.00 | 69 | 1016.3 |
| 20260902152135 | 90 | 302 | 2.6 | 7.0 | 0.00 | 0.00 | 0.00 | 70 | 1016.3 |
| 20260902151629 | 90 | 262 | 2.6 | 7.0 | 0.00 | 0.00 | 0.00 | 71 | 1016.2 |
| 20260902151611 | 89 | 264 | 2.6 | 8.7 | 0.00 | 0.00 | 0.00 | 71 | 1016.5 |
| 20260902151129 | 89 | 234 | 3.5 | 7.0 | 0.00 | 0.00 | 0.00 | 72 | 1016.1 |
| 20260902150629 | 89 | 67 | 2.6 | 7.8 | 0.00 | 0.00 | 0.00 | 73 | 1016.1 |
| 20260902150129 | 89 | 288 | 3.5 | 7.8 | 0.00 | 0.00 | 0.00 | 74 | 1016.2 |
| 20260902145629 | 88 | 290 | 4.3 | 7.8 | 0.00 | 0.00 | 0.00 | 74 | 1016.3 |
| 20260902145347 | 88 | 135 | 4.3 | 7.8 | 0.00 | 0.00 | 0.00 | 75 | 1016.3 |
| 20260902144628 | 87 | 260 | 3.5 | 6.1 | 0.00 | 0.00 | 0.00 | 76 | 1016.2 |
| 20260902144555 | 87 | 161 | 1.7 | 7.8 | 0.00 | 0.00 | 0.00 | 75 | 1016.5 |
| 20260902144129 | 87 | 34 | 3.5 | 7.8 | 0.00 | 0.00 | 0.00 | 78 | 1016.2 |
| 20260902143857 | 87 | 305 | 4.3 | 7.8 | 0.00 | 0.00 | 0.00 | 77 | 1016.3 |
| 20260902143129 | 87 | 300 | 2.6 | 6.1 | 0.00 | 0.00 | 0.00 | 79 | 1016.2 |
| 20260902143055 | 86 | 338 | 1.7 | 7.0 | 0.00 | 0.00 | 0.00 | 78 | 1016.5 |
| 20260902142628 | 86 | 328 | 3.5 | 6.1 | 0.00 | 0.00 | 0.00 | 79 | 1016.3 |
| 20260902142127 | 86 | 162 | 2.6 | 5.2 | 0.00 | 0.00 | 0.00 | 80 | 1016.2 |
| 20260902141932 | 85 | 49 | 2.6 | 7.8 | 0.00 | 0.00 | 0.00 | 81 | 1016.5 |
| 20260902141601 | 85 | 161 | 2.6 | 7.8 | 0.00 | 0.00 | 0.00 | 82 | 1016.2 |
| 20260902141321 | 85 | 247 | 2.6 | 6.1 | 0.00 | 0.00 | 0.00 | 82 | 1016.2 |
| 20260902140601 | 84 | 200 | 2.6 | 7.0 | 0.00 | 0.00 | 0.00 | 83 | 1016.3 |
| 20260902140107 | 84 | 1 | 3.5 | 7.0 | 0.00 | 0.00 | 0.00 | 83 | 1016.2 |
| 20260902135822 | 84 | 74 | 1.7 | 5.2 | 0.00 | 0.00 | 0.00 | 84 | 1016.4 |
| 20260902135031 | 84 | 316 | 2.6 | 7.0 | 0.00 | 0.00 | 0.00 | 84 | 1016.2 |
| 20260902134611 | 83 | 236 | 2.6 | 7.0 | 0.00 | 0.00 | 0.00 | 84 | 1016.4 |
| 20260902134532 | 83 | 288 | 2.6 | 7.0 | 0.00 | 0.00 | 0.00 | 84 | 1016.2 |
| 20260902134032 | 83 | 269 | 1.7 | 4.3 | 0.00 | 0.00 | 0.00 | 84 | 1016.3 |
| 20260902133750 | 83 | 210 | 1.7 | 5.2 | 0.00 | 0.00 | 0.00 | 84 | 1016.2 |
| 20260902133104 | 83 | 207 | 0.9 | 5.2 | 0.00 | 0.00 | 0.00 | 84 | 1016.5 |
| 20260902133031 | 83 | 186 | 1.7 | 5.2 | 0.00 | 0.00 | 0.00 | 85 | 1016.1 |
| 20260902132531 | 83 | 180 | 0.9 | 5.2 | 0.00 | 0.00 | 0.00 | 84 | 1016.3 |
| 20260902132027 | 83 | 178 | 1.7 | 3.5 | 0.00 | 0.00 | 0.00 | 85 | 1016.2 |
| 20260902131635 | 83 | 311 | 0.9 | 4.3 | 0.00 | 0.00 | 0.00 | 84 | 1016.3 |
| 20260902131524 | 83 | 200 | 1.7 | 4.3 | 0.00 | 0.00 | 0.00 | 85 | 1016.0 |
| 20260902131021 | 83 | 320 | 1.7 | 4.3 | 0.00 | 0.00 | 0.00 | 84 | 1015.9 |
| 20260902130743 | 83 | 136 | 0.0 | 3.5 | 0.00 | 0.00 | 0.00 | 85 | 1015.9 |
| 20260902130453 | 83 | 359 | 0.9 | 3.5 | 0.00 | 0.00 | 0.00 | 86 | 1015.9 |
| 20260902130059 | 82 | 160 | 0.9 | 3.5 | 0.00 | 0.00 | 0.00 | 85 | 1016.0 |
| 20260902125510 | 83 | 269 | 1.7 | 5.2 | 0.00 | 0.00 | 0.00 | 86 | 1015.8 |
| 20260902125005 | 82 | 225 | 1.7 | 5.2 | 0.00 | 0.00 | 0.00 | 87 | 1015.8 |
| 20260902124620 | 82 | 208 | 0.0 | 4.3 | 0.00 | 0.00 | 0.00 | 87 | 1015.9 |
| 20260902124502 | 82 | 18 | 0.9 | 4.3 | 0.00 | 0.00 | 0.00 | 87 | 1015.7 |
| 20260902124003 | 82 | 219 | 1.7 | 4.3 | 0.00 | 0.00 | 0.00 | 88 | 1015.8 |
| 20260902123502 | 81 | 27 | 0.0 | 1.7 | 0.00 | 0.00 | 0.00 | 88 | 1015.7 |
| 20260902123137 | 81 | 98 | 0.0 | 4.3 | 0.00 | 0.00 | 0.00 | 87 | 1015.8 |
| 20260902123001 | 81 | 123 | 0.9 | 4.3 | 0.00 | 0.00 | 0.00 | 88 | 1015.6 |
| 20260902122502 | 81 | 338 | 1.7 | 4.3 | 0.00 | 0.00 | 0.00 | 87 | 1015.6 |
| 20260902122002 | 82 | 213 | 0.9 | 3.5 | 0.00 | 0.00 | 0.00 | 87 | 1015.7 |
| 20260902121642 | 81 | 0 | 0.9 | 3.5 | 0.00 | 0.00 | 0.00 | 87 | 1015.7 |
| 20260902121501 | 82 | 96 | 1.7 | 3.5 | 0.00 | 0.00 | 0.00 | 87 | 1015.6 |
| 20260902121004 | 82 | 269 | 0.9 | 3.5 | 0.00 | 0.00 | 0.00 | 87 | 1015.6 |
| 20260902120503 | 82 | 274 | 0.9 | 3.5 | 0.00 | 0.00 | 0.00 | 87 | 1015.5 |
| 20260902120004 | 82 | 1 | 0.9 | 4.3 | 0.00 | 0.00 | 0.00 | 87 | 1015.6 |
| 20260902115503 | 82 | 322 | 1.7 | 4.3 | 0.00 | 0.00 | 0.00 | 87 | 1015.6 |
| 20260902115225 | 82 | 66 | 1.7 | 4.3 | 0.00 | 0.00 | 0.00 | 87 | 1015.6 |
| 20260902114557 | 81 | 320 | 0.9 | 5.2 | 0.00 | 0.00 | 0.00 | 86 | 1015.7 |
| 20260902114503 | 82 | 226 | 0.9 | 4.3 | 0.00 | 0.00 | 0.00 | 86 | 1015.5 |
| 20260902114004 | 82 | 73 | 0.0 | 3.5 | 0.00 | 0.00 | 0.00 | 86 | 1015.4 |
| 20260902113504 | 82 | 187 | 1.7 | 3.5 | 0.00 | 0.00 | 0.00 | 86 | 1015.4 |
| 20260902113228 | 82 | 329 | 1.7 | 6.1 | 0.00 | 0.00 | 0.00 | 86 | 1015.3 |
| 20260902113202 | 81 | 223 | 0.9 | 5.2 | 0.00 | 0.00 | 0.00 | 86 | 1015.6 |
| 20260902112515 | 82 | 263 | 1.7 | 6.1 | 0.00 | 0.00 | 0.00 | 86 | 1015.3 |
| 20260902112016 | 82 | 207 | 2.6 | 3.5 | 0.00 | 0.00 | 0.00 | 86 | 1015.4 |
| 20260902111657 | 82 | 288 | 1.7 | 6.1 | 0.00 | 0.00 | 0.00 | 85 | 1015.6 |
| 20260902111503 | 82 | 119 | 1.7 | 3.5 | 0.00 | 0.00 | 0.00 | 86 | 1015.4 |
| 20260902111236 | 82 | 225 | 2.6 | 5.2 | 0.00 | 0.00 | 0.00 | 85 | 1015.4 |
| 20260902110503 | 82 | 345 | 2.6 | 6.1 | 0.00 | 0.00 | 0.00 | 85 | 1015.4 |
| 20260902110243 | 82 | 278 | 1.7 | 7.0 | 0.00 | 0.00 | 0.00 | 85 | 1015.5 |
| 20260902110125 | 82 | 278 | 1.7 | 7.0 | 0.00 | 0.00 | 0.00 | 85 | 1015.5 |
| 20260902110006 | 82 | 287 | 2.6 | 6.1 | 0.00 | 0.00 | 0.00 | 85 | 1015.3 |
| 20260902105503 | 82 | 247 | 1.7 | 3.5 | 0.00 | 0.00 | 0.00 | 85 | 1015.3 |
| 20260902105003 | 82 | 252 | 0.9 | 5.2 | 0.00 | 0.00 | 0.00 | 85 | 1015.4 |
| 20260902104616 | 82 | 275 | 0.9 | 6.1 | 0.00 | 0.00 | 0.00 | 85 | 1015.4 |
| 20260902104501 | 82 | 155 | 1.7 | 5.2 | 0.00 | 0.00 | 0.00 | 85 | 1015.3 |
| 20260902104226 | 82 | 184 | 1.7 | 5.2 | 0.00 | 0.00 | 0.00 | 85 | 1015.5 |
| 20260902103721 | 82 | 6 | 2.6 | 6.1 | 0.00 | 0.00 | 0.00 | 85 | 1015.5 |
| 20260902103052 | 82 | 70 | 1.7 | 6.1 | 0.00 | 0.00 | 0.00 | 85 | 1015.6 |
| 20260902103002 | 82 | 176 | 1.7 | 6.1 | 0.00 | 0.00 | 0.00 | 85 | 1015.5 |
| 20260902102943 | 82 | 191 | 2.6 | 6.1 | 0.00 | 0.00 | 0.00 | 85 | 1015.3 |
| 20260902102002 | 82 | 67 | 0.9 | 6.1 | 0.00 | 0.00 | 0.00 | 85 | 1015.3 |
| 20260902101601 | 82 | 260 | 1.7 | 5.2 | 0.00 | 0.00 | 0.00 | 84 | 1015.5 |
| 20260902101501 | 82 | 97 | 1.7 | 6.1 | 0.00 | 0.00 | 0.00 | 85 | 1015.4 |
| 20260902101017 | 82 | 302 | 1.7 | 5.2 | 0.00 | 0.00 | 0.00 | 85 | 1015.4 |
| 20260902100516 | 83 | 152 | 2.6 | 5.2 | 0.00 | 0.00 | 0.00 | 85 | 1015.5 |
| 20260902100326 | 82 | 72 | 1.7 | 6.1 | 0.00 | 0.00 | 0.00 | 84 | 1015.7 |
| 20260902100119 | 82 | 72 | 1.7 | 6.1 | 0.00 | 0.00 | 0.00 | 84 | 1015.7 |
| 20260902100004 | 83 | 180 | 1.7 | 5.2 | 0.00 | 0.00 | 0.00 | 85 | 1015.4 |
| 20260902095517 | 83 | 278 | 1.7 | 4.3 | 0.00 | 0.00 | 0.00 | 85 | 1015.4 |
| 20260902095001 | 83 | 327 | 1.7 | 6.1 | 0.00 | 0.00 | 0.00 | 85 | 1015.5 |
| 20260902094607 | 82 | 105 | 1.7 | 6.1 | 0.00 | 0.00 | 0.00 | 84 | 1015.7 |
| 20260902094502 | 83 | 278 | 2.6 | 6.1 | 0.00 | 0.00 | 0.00 | 84 | 1015.5 |
| 20260902094002 | 83 | 37 | 3.5 | 4.3 | 0.00 | 0.00 | 0.00 | 84 | 1015.5 |
| 20260902093502 | 83 | 345 | 0.9 | 3.5 | 0.00 | 0.00 | 0.00 | 84 | 1015.6 |
| 20260902093146 | 82 | 256 | 1.7 | 6.1 | 0.00 | 0.00 | 0.00 | 84 | 1015.8 |
| 20260902093002 | 83 | 6 | 1.7 | 4.3 | 0.00 | 0.00 | 0.00 | 84 | 1015.6 |
| 20260902092502 | 83 | 177 | 2.6 | 6.1 | 0.00 | 0.00 | 0.00 | 84 | 1015.6 |
| 20260902092002 | 83 | 281 | 2.6 | 7.8 | 0.00 | 0.00 | 0.00 | 84 | 1015.5 |
| 20260902091619 | 83 | 216 | 3.5 | 11.3 | 0.00 | 0.00 | 0.00 | 84 | 1015.7 |
| 20260902091501 | 83 | 350 | 4.3 | 7.8 | 0.00 | 0.00 | 0.00 | 84 | 1015.5 |
| 20260902091231 | 83 | 100 | 1.7 | 7.0 | 0.00 | 0.00 | 0.00 | 84 | 1015.4 |
| 20260902090503 | 83 | 240 | 3.5 | 7.0 | 0.00 | 0.00 | 0.00 | 84 | 1015.4 |
| 20260902090126 | 83 | 158 | 1.7 | 7.0 | 0.00 | 0.00 | 0.00 | 83 | 1015.7 |
| 20260902090004 | 83 | 136 | 2.6 | 7.0 | 0.00 | 0.00 | 0.00 | 84 | 1015.4 |
| 20260902085504 | 83 | 248 | 3.5 | 7.8 | 0.00 | 0.00 | 0.00 | 83 | 1015.3 |
| 20260902085003 | 83 | 105 | 4.3 | 7.8 | 0.00 | 0.00 | 0.00 | 83 | 1015.4 |
| 20260902084727 | 83 | 39 | 2.6 | 9.6 | 0.00 | 0.00 | 0.00 | 83 | 1015.4 |
| 20260902084607 | 83 | 70 | 2.6 | 10.4 | 0.00 | 0.00 | 0.00 | 83 | 1015.6 |
| 20260902084003 | 83 | 206 | 3.5 | 9.6 | 0.00 | 0.00 | 0.00 | 83 | 1015.5 |
| 20260902083503 | 83 | 57 | 3.5 | 9.6 | 0.00 | 0.00 | 0.00 | 83 | 1015.5 |
| 20260902083108 | 83 | 113 | 3.5 | 9.6 | 0.00 | 0.00 | 0.00 | 82 | 1015.7 |
| 20260902083002 | 83 | 164 | 3.5 | 9.6 | 0.00 | 0.00 | 0.00 | 83 | 1015.5 |
| 20260902082502 | 83 | 276 | 1.7 | 6.1 | 0.00 | 0.00 | 0.00 | 83 | 1015.6 |
| 20260902082000 | 83 | 248 | 2.6 | 8.7 | 0.00 | 0.00 | 0.00 | 82 | 1015.6 |
| 20260902081620 | 83 | 260 | 1.7 | 9.6 | 0.00 | 0.00 | 0.00 | 82 | 1015.8 |
| 20260902081454 | 83 | 221 | 1.7 | 9.6 | 0.00 | 0.00 | 0.00 | 82 | 1015.6 |
| 20260902081212 | 83 | 161 | 3.5 | 9.6 | 0.00 | 0.00 | 0.00 | 82 | 1015.6 |
| 20260902080443 | 83 | 157 | 0.9 | 8.7 | 0.00 | 0.00 | 0.00 | 82 | 1015.7 |
| 20260902080225 | 83 | 290 | 3.5 | 7.8 | 0.00 | 0.00 | 0.00 | 82 | 1015.8 |
| 20260902075943 | 83 | 306 | 4.3 | 8.7 | 0.00 | 0.00 | 0.00 | 82 | 1015.6 |
| 20260902075704 | 83 | 322 | 1.7 | 7.0 | 0.00 | 0.00 | 0.00 | 82 | 1015.7 |
| 20260902074938 | 84 | 22 | 2.6 | 7.0 | 0.00 | 0.00 | 0.00 | 82 | 1015.7 |
| 20260902074606 | 83 | 6 | 0.9 | 7.0 | 0.00 | 0.00 | 0.00 | 81 | 1016.0 |
| 20260902074434 | 84 | 273 | 1.7 | 6.1 | 0.00 | 0.00 | 0.00 | 82 | 1015.8 |
| 20260902073931 | 84 | 238 | 3.5 | 7.0 | 0.00 | 0.00 | 0.00 | 82 | 1015.8 |
| 20260902073430 | 84 | 130 | 1.7 | 7.0 | 0.00 | 0.00 | 0.00 | 82 | 1015.8 |
| 20260902073059 | 83 | 223 | 3.5 | 7.0 | 0.00 | 0.00 | 0.00 | 81 | 1016.1 |
| 20260902072930 | 84 | 186 | 3.5 | 7.0 | 0.00 | 0.00 | 0.00 | 82 | 1015.9 |
| 20260902072655 | 84 | 150 | 1.7 | 7.0 | 0.00 | 0.00 | 0.00 | 82 | 1015.7 |
| 20260902071930 | 84 | 217 | 3.5 | 7.0 | 0.00 | 0.00 | 0.00 | 81 | 1016.0 |
| 20260902071602 | 83 | 225 | 2.6 | 7.0 | 0.00 | 0.00 | 0.00 | 81 | 1016.2 |
| 20260902071430 | 84 | 278 | 2.6 | 7.0 | 0.00 | 0.00 | 0.00 | 81 | 1016.0 |
| 20260902070929 | 84 | 300 | 2.6 | 6.1 | 0.00 | 0.00 | 0.00 | 81 | 1016.1 |
| 20260902070433 | 84 | 349 | 2.6 | 6.1 | 0.00 | 0.00 | 0.00 | 81 | 1016.2 |
| 20260902070318 | 83 | 134 | 2.6 | 7.0 | 0.00 | 0.00 | 0.00 | 81 | 1016.5 |
| 20260902070220 | 83 | 134 | 2.6 | 7.0 | 0.00 | 0.00 | 0.00 | 81 | 1016.5 |
| 20260902065932 | 84 | 264 | 2.6 | 7.0 | 0.00 | 0.00 | 0.00 | 81 | 1016.1 |
| 20260902065657 | 84 | 256 | 3.5 | 7.0 | 0.00 | 0.00 | 0.00 | 81 | 1016.2 |
| 20260902064936 | 84 | 79 | 3.5 | 7.8 | 0.00 | 0.00 | 0.00 | 82 | 1016.3 |
| 20260902064558 | 84 | 50 | 3.5 | 7.8 | 0.00 | 0.00 | 0.00 | 82 | 1016.5 |
| 20260902064436 | 84 | 69 | 3.5 | 7.8 | 0.00 | 0.00 | 0.00 | 82 | 1016.3 |
| 20260902064148 | 84 | 116 | 2.6 | 6.1 | 0.00 | 0.00 | 0.00 | 82 | 1016.4 |
| 20260902063431 | 84 | 44 | 2.6 | 6.1 | 0.00 | 0.00 | 0.00 | 82 | 1016.4 |
| 20260902063250 | 84 | 283 | 1.7 | 7.8 | 0.00 | 0.00 | 0.00 | 82 | 1016.7 |
| 20260902063156 | 84 | 12 | 2.6 | 7.8 | 0.00 | 0.00 | 0.00 | 82 | 1016.5 |
| 20260902062430 | 84 | 224 | 2.6 | 7.8 | 0.00 | 0.00 | 0.00 | 82 | 1016.5 |
| 20260902061930 | 84 | 217 | 2.6 | 7.0 | 0.00 | 0.00 | 0.00 | 82 | 1016.6 |
| 20260902061557 | 84 | 161 | 2.6 | 7.0 | 0.00 | 0.00 | 0.00 | 81 | 1016.8 |
| 20260902061430 | 84 | 251 | 3.5 | 7.0 | 0.00 | 0.00 | 0.00 | 82 | 1016.6 |
| 20260902060930 | 84 | 114 | 2.6 | 7.8 | 0.00 | 0.00 | 0.00 | 82 | 1016.6 |
| 20260902060430 | 84 | 138 | 4.3 | 7.8 | 0.00 | 0.00 | 0.00 | 81 | 1016.6 |
| 20260902060135 | 84 | 11 | 2.6 | 7.8 | 0.00 | 0.00 | 0.00 | 81 | 1016.7 |
| 20260902055931 | 85 | 218 | 2.6 | 7.0 | 0.00 | 0.00 | 0.00 | 81 | 1016.5 |
| 20260902055430 | 85 | 180 | 2.6 | 8.7 | 0.00 | 0.00 | 0.00 | 81 | 1016.4 |
| 20260902055416 | 85 | 179 | 3.5 | 8.7 | 0.00 | 0.00 | 0.00 | 81 | 1016.3 |
| 20260902054554 | 84 | 124 | 3.5 | 8.7 | 0.00 | 0.00 | 0.00 | 80 | 1016.6 |
| 20260902054430 | 85 | 346 | 4.3 | 9.6 | 0.00 | 0.00 | 0.00 | 81 | 1016.5 |
| 20260902054150 | 85 | 71 | 2.6 | 9.6 | 0.00 | 0.00 | 0.00 | 81 | 1016.6 |
| 20260902053430 | 85 | 215 | 1.7 | 6.1 | 0.00 | 0.00 | 0.00 | 80 | 1016.4 |
| 20260902053149 | 85 | 169 | 2.6 | 6.1 | 0.00 | 0.00 | 0.00 | 80 | 1016.6 |
| 20260902053119 | 84 | 256 | 2.6 | 7.0 | 0.00 | 0.00 | 0.00 | 80 | 1016.8 |
| 20260902052430 | 85 | 253 | 1.7 | 6.1 | 0.00 | 0.00 | 0.00 | 80 | 1016.5 |
| 20260902051927 | 85 | 298 | 1.7 | 6.1 | 0.00 | 0.00 | 0.00 | 80 | 1016.6 |
| 20260902051607 | 84 | 94 | 3.5 | 7.8 | 0.00 | 0.00 | 0.00 | 80 | 1016.7 |
| 20260902051423 | 85 | 271 | 2.6 | 5.2 | 0.00 | 0.00 | 0.00 | 80 | 1016.4 |
| 20260902050916 | 85 | 200 | 1.7 | 7.0 | 0.00 | 0.00 | 0.00 | 80 | 1016.5 |
| 20260902050411 | 85 | 203 | 2.6 | 7.0 | 0.00 | 0.00 | 0.00 | 80 | 1016.4 |
| 20260902050055 | 85 | 134 | 1.7 | 6.1 | 0.00 | 0.00 | 0.00 | 79 | 1016.7 |
| 20260902045909 | 85 | 321 | 1.7 | 6.1 | 0.00 | 0.00 | 0.00 | 80 | 1016.6 |
| 20260902045407 | 85 | 222 | 1.7 | 6.1 | 0.00 | 0.00 | 0.00 | 80 | 1016.6 |
| 20260902044908 | 85 | 102 | 1.7 | 6.1 | 0.00 | 0.00 | 0.00 | 79 | 1016.6 |
| 20260902044602 | 85 | 299 | 1.7 | 7.0 | 0.00 | 0.00 | 0.00 | 78 | 1016.8 |
| 20260902044408 | 85 | 231 | 2.6 | 7.0 | 0.00 | 0.00 | 0.00 | 79 | 1016.6 |
| 20260902044355 | 85 | 250 | 2.6 | 7.0 | 0.00 | 0.00 | 0.00 | 78 | 1016.7 |
| 20260902043409 | 85 | 290 | 3.5 | 5.2 | 0.00 | 0.00 | 0.00 | 78 | 1016.8 |
| 20260902043111 | 85 | 167 | 1.7 | 6.1 | 0.00 | 0.00 | 0.00 | 77 | 1016.9 |
| 20260902042908 | 85 | 0 | 1.7 | 5.2 | 0.00 | 0.00 | 0.00 | 78 | 1016.7 |
| 20260902042407 | 85 | 127 | 3.5 | 5.2 | 0.00 | 0.00 | 0.00 | 78 | 1016.7 |
| 20260902041909 | 85 | 166 | 1.7 | 7.0 | 0.00 | 0.00 | 0.00 | 78 | 1016.7 |
| 20260902041630 | 85 | 240 | 1.7 | 6.1 | 0.00 | 0.00 | 0.00 | 77 | 1016.8 |
| 20260902041557 | 85 | 240 | 1.7 | 6.1 | 0.00 | 0.00 | 0.00 | 77 | 1016.8 |
| 20260902041408 | 85 | 59 | 1.7 | 7.0 | 0.00 | 0.00 | 0.00 | 78 | 1016.7 |
| 20260902040906 | 86 | 136 | 2.6 | 7.0 | 0.00 | 0.00 | 0.00 | 78 | 1016.5 |
| 20260902040625 | 86 | 210 | 2.6 | 7.0 | 0.00 | 0.00 | 0.00 | 78 | 1016.4 |
| 20260902040133 | 86 | 330 | 2.6 | 7.0 | 0.00 | 0.00 | 0.00 | 78 | 1016.2 |
| 20260902040056 | 85 | 233 | 2.6 | 7.0 | 0.00 | 0.00 | 0.00 | 77 | 1016.6 |
| 20260902035406 | 86 | 285 | 3.5 | 7.8 | 0.00 | 0.00 | 0.00 | 78 | 1016.3 |
| 20260902035132 | 86 | 228 | 3.5 | 8.7 | 0.00 | 0.00 | 0.00 | 77 | 1016.3 |
| 20260902034553 | 86 | 153 | 3.5 | 8.7 | 0.00 | 0.00 | 0.00 | 77 | 1016.4 |
| 20260902034406 | 86 | 23 | 3.5 | 8.7 | 0.00 | 0.00 | 0.00 | 77 | 1016.1 |
| 20260902033906 | 86 | 252 | 2.6 | 7.0 | 0.00 | 0.00 | 0.00 | 77 | 1016.0 |
| 20260902033407 | 86 | 274 | 2.6 | 9.6 | 0.00 | 0.00 | 0.00 | 76 | 1016.0 |
| 20260902033112 | 86 | 219 | 4.3 | 9.6 | 0.00 | 0.00 | 0.00 | 76 | 1016.2 |
| 20260902032907 | 86 | 8 | 4.3 | 9.6 | 0.00 | 0.00 | 0.00 | 76 | 1015.9 |
| 20260902032406 | 87 | 219 | 2.6 | 7.0 | 0.00 | 0.00 | 0.00 | 76 | 1015.9 |
| 20260902031905 | 87 | 77 | 3.5 | 6.1 | 0.00 | 0.00 | 0.00 | 76 | 1015.7 |
| 20260902031558 | 86 | 68 | 1.7 | 7.0 | 0.00 | 0.00 | 0.00 | 75 | 1015.7 |
| 20260902031405 | 87 | 342 | 3.5 | 7.0 | 0.00 | 0.00 | 0.00 | 75 | 1015.5 |
| 20260902030902 | 87 | 254 | 2.6 | 8.7 | 0.00 | 0.00 | 0.00 | 75 | 1015.5 |
| 20260902030402 | 87 | 56 | 3.5 | 8.7 | 0.00 | 0.00 | 0.00 | 75 | 1015.4 |
| 20260902030056 | 87 | 67 | 3.5 | 7.8 | 0.00 | 0.00 | 0.00 | 74 | 1015.5 |
| 20260902025902 | 87 | 69 | 3.5 | 7.8 | 0.00 | 0.00 | 0.00 | 74 | 1015.2 |
| 20260902025627 | 87 | 40 | 2.6 | 7.8 | 0.00 | 0.00 | 0.00 | 74 | 1015.1 |
| 20260902024941 | 87 | 316 | 2.6 | 7.8 | 0.00 | 0.00 | 0.00 | 72 | 1015.2 |
| 20260902024902 | 88 | 89 | 2.6 | 6.1 | 0.00 | 0.00 | 0.00 | 73 | 1015.1 |
| 20260902024851 | 87 | 316 | 2.6 | 7.8 | 0.00 | 0.00 | 0.00 | 72 | 1015.2 |
| 20260902024402 | 88 | 152 | 3.5 | 6.1 | 0.00 | 0.00 | 0.00 | 72 | 1014.9 |
| 20260902023902 | 88 | 8 | 2.6 | 8.7 | 0.00 | 0.00 | 0.00 | 72 | 1014.8 |
| 20260902023403 | 88 | 304 | 4.3 | 6.1 | 0.00 | 0.00 | 0.00 | 71 | 1014.8 |
| 20260902023131 | 0 | 0.0 | 0.0 | 0.00 | 0.00 | 0.00 | |||
| 20260902023101 | 88 | 190 | 3.5 | 7.8 | 0.00 | 0.00 | 0.00 | 70 | 1015.0 |
| 20260902022502 | 89 | 205 | 3.5 | 0.0 | 0.00 | 0.00 | 0.00 | 67 | 1014.3 |
| 20260902022001 | 89 | 205 | 3.5 | 5.2 | 0.00 | 0.00 | 0.00 | 67 | 1014.3 |
| 20260902021501 | 89 | 205 | 3.5 | 6.1 | 0.00 | 0.00 | 0.00 | 67 | 1014.3 |
| 20260902021001 | 89 | 174 | 2.6 | 7.0 | 0.00 | 0.00 | 0.00 | 67 | 1014.3 |
| 20260902020501 | 89 | 70 | 3.5 | 7.0 | 0.00 | 0.00 | 0.00 | 66 | 1014.1 |
| 20260902020144 | 89 | 34 | 1.7 | 9.6 | 0.00 | 0.00 | 0.00 | 64 | 1014.3 |
| 20260902020001 | 90 | 115 | 3.5 | 9.6 | 0.00 | 0.00 | 0.00 | 64 | 1014.1 |
| 20260902015500 | 90 | 27 | 4.3 | 9.6 | 0.00 | 0.00 | 0.00 | 64 | 1014.1 |
| 20260902015003 | 90 | 164 | 4.3 | 9.6 | 0.00 | 0.00 | 0.00 | 63 | 1014.0 |
| 20260902014724 | 91 | 352 | 3.5 | 7.8 | 0.00 | 0.00 | 0.00 | 62 | 1014.0 |
| 20260902014602 | 90 | 123 | 3.5 | 8.7 | 0.00 | 0.00 | 0.00 | 62 | 1014.2 |
| 20260902014002 | 91 | 52 | 3.5 | 7.8 | 0.00 | 0.00 | 0.00 | 61 | 1013.9 |
| 20260902013502 | 91 | 155 | 3.5 | 7.8 | 0.00 | 0.00 | 0.00 | 60 | 1013.8 |
| 20260902013106 | 91 | 10 | 1.7 | 8.7 | 0.00 | 0.00 | 0.00 | 58 | 1013.7 |
| 20260902013000 | 91 | 273 | 1.7 | 7.8 | 0.00 | 0.00 | 0.00 | 59 | 1013.6 |
| 20260902012736 | 92 | 294 | 3.5 | 7.8 | 0.00 | 0.00 | 0.00 | 58 | 1013.5 |
| 20260902012001 | 92 | 330 | 3.5 | 9.6 | 0.00 | 0.00 | 0.00 | 57 | 1013.5 |
| 20260902011555 | 92 | 60 | 2.6 | 8.7 | 0.00 | 0.00 | 0.00 | 56 | 1013.6 |
| 20260902011501 | 92 | 222 | 3.5 | 9.6 | 0.00 | 0.00 | 0.00 | 56 | 1013.4 |
| 20260902011001 | 93 | 177 | 5.2 | 8.7 | 0.00 | 0.00 | 0.00 | 55 | 1013.4 |
| 20260902010502 | 93 | 141 | 3.5 | 7.0 | 0.00 | 0.00 | 0.00 | 53 | 1013.1 |
| 20260902010454 | 93 | 344 | 3.5 | 7.8 | 0.00 | 0.00 | 0.00 | 52 | 1013.2 |
| 20260902010002 | 93 | 25 | 3.5 | 7.8 | 0.00 | 0.00 | 0.00 | 53 | 1013.1 |
| 20260902005501 | 93 | 214 | 4.3 | 9.6 | 0.00 | 0.00 | 0.00 | 52 | 1013.0 |
| 20260902005002 | 94 | 221 | 3.5 | 9.6 | 0.00 | 0.00 | 0.00 | 52 | 1013.0 |
| 20260902004603 | 93 | 180 | 3.5 | 9.6 | 0.00 | 0.00 | 0.00 | 51 | 1013.2 |
| 20260902004502 | 94 | 319 | 4.3 | 9.6 | 0.00 | 0.00 | 0.00 | 51 | 1013.0 |
| 20260902004001 | 94 | 20 | 4.3 | 9.6 | 0.00 | 0.00 | 0.00 | 51 | 1012.9 |
| 20260902003502 | 95 | 58 | 3.5 | 7.0 | 0.00 | 0.00 | 0.00 | 50 | 1012.9 |
| 20260902003104 | 95 | 240 | 2.6 | 7.8 | 0.00 | 0.00 | 0.00 | 49 | 1013.1 |
| 20260902003002 | 95 | 139 | 3.5 | 7.0 | 0.00 | 0.00 | 0.00 | 50 | 1012.8 |
| 20260902002500 | 96 | 288 | 3.5 | 7.8 | 0.00 | 0.00 | 0.00 | 49 | 1012.7 |
| 20260902002002 | 96 | 292 | 3.5 | 8.7 | 0.00 | 0.00 | 0.00 | 49 | 1012.6 |
| 20260902001556 | 96 | 210 | 2.6 | 8.7 | 0.00 | 0.00 | 0.00 | 48 | 1012.8 |
| 20260902001501 | 96 | 325 | 3.5 | 8.7 | 0.00 | 0.00 | 0.00 | 48 | 1012.5 |
| 20260902001001 | 97 | 94 | 4.3 | 7.8 | 0.00 | 0.00 | 0.00 | 46 | 1012.6 |
| 20260902000501 | 97 | 56 | 4.3 | 7.8 | 0.00 | 0.00 | 0.00 | 46 | 1012.5 |
| 20260902000055 | 97 | 88 | 3.5 | 8.7 | 0.00 | 0.00 | 0.00 | 44 | 1012.7 |
| 20260902000002 | 98 | 196 | 4.3 | 7.0 | 0.00 | 0.00 | 0.00 | 45 | 1012.5 |
| 20260901235500 | 98 | 200 | 2.6 | 7.0 | 0.00 | 0.00 | 0.00 | 43 | 1012.4 |
| 20260901235002 | 99 | 219 | 2.6 | 7.0 | 0.00 | 0.00 | 0.00 | 42 | 1012.4 |
| 20260901234635 | 98 | 198 | 2.6 | 7.0 | 0.00 | 0.00 | 0.00 | 42 | 1012.5 |
| 20260901234447 | 99 | 103 | 3.5 | 7.0 | 0.00 | 0.00 | 0.00 | 42 | 1012.2 |
| 20260901233941 | 99 | 242 | 3.5 | 7.0 | 0.00 | 0.00 | 0.00 | 41 | 1012.3 |
| 20260901233440 | 99 | 167 | 3.5 | 7.8 | 0.00 | 0.00 | 0.00 | 41 | 1012.2 |
| 20260901233103 | 99 | 82 | 5.2 | 9.6 | 0.00 | 0.00 | 0.00 | 40 | 1012.4 |
| 20260901232935 | 99 | 184 | 5.2 | 7.8 | 0.00 | 0.00 | 0.00 | 40 | 1012.2 |
| 20260901232435 | 100 | 347 | 2.6 | 6.1 | 0.00 | 0.00 | 0.00 | 39 | 1012.4 |
| 20260901231929 | 100 | 262 | 2.6 | 7.8 | 0.00 | 0.00 | 0.00 | 40 | 1012.3 |
| 20260901231607 | 100 | 3 | 4.3 | 7.0 | 0.00 | 0.00 | 0.00 | 39 | 1012.4 |
| 20260901231429 | 101 | 263 | 4.3 | 7.8 | 0.00 | 0.00 | 0.00 | 39 | 1012.2 |
| 20260901230929 | 101 | 67 | 3.5 | 7.8 | 0.00 | 0.00 | 0.00 | 38 | 1012.0 |
| 20260901230429 | 101 | 216 | 3.5 | 9.6 | 0.00 | 0.00 | 0.00 | 37 | 1012.1 |
| 20260901230159 | 101 | 336 | 3.5 | 9.6 | 0.00 | 0.00 | 0.00 | 37 | 1012.0 |
| 20260901230112 | 101 | 229 | 2.6 | 9.6 | 0.00 | 0.00 | 0.00 | 37 | 1012.3 |
| 20260901225929 | 101 | 238 | 3.5 | 9.6 | 0.00 | 0.00 | 0.00 | 37 | 1012.0 |
| 20260901224928 | 102 | 77 | 2.6 | 7.0 | 0.00 | 0.00 | 0.00 | 37 | 1012.0 |
| 20260901224603 | 101 | 112 | 2.6 | 7.0 | 0.00 | 0.00 | 0.00 | 36 | 1012.1 |
| 20260901224430 | 102 | 358 | 3.5 | 7.0 | 0.00 | 0.00 | 0.00 | 37 | 1012.1 |
| 20260901223930 | 102 | 176 | 1.7 | 6.1 | 0.00 | 0.00 | 0.00 | 37 | 1012.0 |
| 20260901223430 | 102 | 98 | 4.3 | 6.1 | 0.00 | 0.00 | 0.00 | 36 | 1012.1 |
| 20260901223126 | 102 | 229 | 3.5 | 7.8 | 0.00 | 0.00 | 0.00 | 35 | 1012.3 |
| 20260901222929 | 103 | 257 | 0.9 | 6.1 | 0.00 | 0.00 | 0.00 | 36 | 1012.0 |
| 20260901222429 | 102 | 289 | 2.6 | 6.1 | 0.00 | 0.00 | 0.00 | 37 | 1012.0 |
| 20260901221928 | 102 | 285 | 2.6 | 6.1 | 0.00 | 0.00 | 0.00 | 37 | 1012.0 |
| 20260901221618 | 102 | 226 | 3.5 | 7.8 | 0.00 | 0.00 | 0.00 | 36 | 1012.4 |
| 20260901221431 | 102 | 288 | 5.2 | 6.1 | 0.00 | 0.00 | 0.00 | 37 | 1012.0 |
| 20260901221157 | 103 | 276 | 1.7 | 9.6 | 0.00 | 0.00 | 0.00 | 36 | 1012.0 |
| 20260901220718 | 103 | 297 | 3.5 | 9.6 | 0.00 | 0.00 | 0.00 | 37 | 1012.1 |
| 20260901220057 | 103 | 79 | 1.7 | 7.0 | 0.00 | 0.00 | 0.00 | 37 | 1012.3 |
| 20260901215931 | 104 | 304 | 2.6 | 5.2 | 0.00 | 0.00 | 0.00 | 38 | 1012.1 |
| 20260901215428 | 103 | 106 | 1.7 | 5.2 | 0.00 | 0.00 | 0.00 | 39 | 1012.1 |
| 20260901214928 | 103 | 307 | 2.6 | 8.7 | 0.00 | 0.00 | 0.00 | 38 | 1012.2 |
| 20260901214600 | 103 | 286 | 3.5 | 7.8 | 0.00 | 0.00 | 0.00 | 37 | 1012.4 |
| 20260901214429 | 103 | 233 | 4.3 | 8.7 | 0.00 | 0.00 | 0.00 | 37 | 1012.2 |
| 20260901213929 | 104 | 272 | 1.7 | 7.0 | 0.00 | 0.00 | 0.00 | 37 | 1012.3 |
| 20260901213429 | 103 | 245 | 2.6 | 8.7 | 0.00 | 0.00 | 0.00 | 38 | 1012.3 |
| 20260901213126 | 103 | 225 | 2.6 | 7.8 | 0.00 | 0.00 | 0.00 | 39 | 1012.5 |
| 20260901212929 | 103 | 227 | 3.5 | 8.7 | 0.00 | 0.00 | 0.00 | 38 | 1012.4 |
| 20260901212429 | 103 | 262 | 2.6 | 9.6 | 0.00 | 0.00 | 0.00 | 37 | 1012.4 |
| 20260901211929 | 104 | 253 | 4.3 | 9.6 | 0.00 | 0.00 | 0.00 | 38 | 1012.4 |
| 20260901211602 | 103 | 229 | 1.7 | 11.3 | 0.00 | 0.00 | 0.00 | 38 | 1012.6 |
| 20260901211431 | 103 | 290 | 2.6 | 9.6 | 0.00 | 0.00 | 0.00 | 40 | 1012.4 |
| 20260901210929 | 103 | 37 | 4.3 | 9.6 | 0.00 | 0.00 | 0.00 | 41 | 1012.4 |
| 20260901210429 | 103 | 64 | 2.6 | 10.4 | 0.00 | 0.00 | 0.00 | 41 | 1012.6 |
| 20260901210101 | 103 | 123 | 3.5 | 11.3 | 0.00 | 0.00 | 0.00 | 40 | 1012.8 |
| 20260901205929 | 103 | 181 | 3.5 | 10.4 | 0.00 | 0.00 | 0.00 | 40 | 1012.6 |
| 20260901205428 | 103 | 209 | 2.6 | 7.0 | 0.00 | 0.00 | 0.00 | 41 | 1012.6 |
| 20260901204928 | 103 | 133 | 2.6 | 6.1 | 0.00 | 0.00 | 0.00 | 41 | 1012.8 |